Terug naar catalogus

YAOGAN-35 05A

ActiefMilitairVLEO
NORAD 53760·PAYLOAD·🇨🇳 China

Gelanceerd Sep 6, 2022 vanaf Xichang Satellite Launch Center

Loading…

Volgende Passages (komende 24 uur)

TLE

VersSource: Space-Track

Epoch: Sep 14, 2026, 22:24 UTC

1 53760U 22109A   26257.93351663  .00008323  00000-0  34684-3 0  9997
2 53760  35.0065 134.6057 0004740  90.4545 269.6712 15.22976361224306

Volg YAOGAN-35 05A in realtime met AllMySat

Download on the App Store